TimeEST,TemperatureF,Dew PointF,Humidity,Sea Level PressureIn,VisibilityMPH,Wind Direction,Wind SpeedMPH,Gust SpeedMPH,PrecipitationIn,Events,Conditions,WindDirDegrees,DateUTC
12:16 AM,18.5,7.3,62,29.78,10.0,South,12.7,19.6,N/A,,Overcast,190,2014-01-04 05:16:00
12:35 AM,19.0,7.5,61,29.78,10.0,SSW,19.6,24.2,N/A,,Overcast,200,2014-01-04 05:35:00
12:56 AM,19.4,7.7,60,29.77,10.0,South,13.8,21.9,N/A,,Overcast,190,2014-01-04 05:56:00
1:16 AM,19.4,7.9,61,29.76,10.0,SSW,16.1,25.3,N/A,,Overcast,200,2014-01-04 06:16:00
1:35 AM,19.8,7.5,59,29.75,10.0,South,18.4,28.8,N/A,,Overcast,190,2014-01-04 06:35:00
1:56 AM,20.1,8.2,60,29.75,7.0,SSW,17.3,26.5,N/A,,Overcast,200,2014-01-04 06:56:00
2:16 AM,20.1,8.8,62,29.73,7.0,SSW,17.3,26.5,N/A,,Overcast,210,2014-01-04 07:16:00
2:35 AM,20.1,9.0,62,29.73,7.0,South,15.0,25.3,N/A,,Overcast,190,2014-01-04 07:35:00
2:56 AM,20.1,9.5,63,29.73,10.0,South,12.7,25.3,N/A,,Overcast,190,2014-01-04 07:56:00
3:15 AM,19.9,9.7,64,29.73,10.0,SSW,16.1,23.0,N/A,,Overcast,200,2014-01-04 08:15:00
3:36 AM,19.9,10.2,66,29.72,10.0,South,16.1,25.3,N/A,,Overcast,180,2014-01-04 08:36:00
3:56 AM,20.1,10.6,67,29.71,10.0,South,16.1,29.9,N/A,,Overcast,190,2014-01-04 08:56:00
4:15 AM,20.3,11.1,68,29.70,10.0,South,15.0,24.2,N/A,,Overcast,190,2014-01-04 09:15:00
4:36 AM,20.3,11.8,70,29.69,10.0,South,12.7,23.0,N/A,,Overcast,190,2014-01-04 09:36:00
4:55 AM,20.7,12.2,70,29.69,10.0,South,12.7,25.3,N/A,,Overcast,190,2014-01-04 09:55:00
5:16 AM,21.0,12.9,71,29.68,10.0,SSW,15.0,25.3,N/A,,Overcast,200,2014-01-04 10:16:00
5:36 AM,21.2,13.5,72,29.67,10.0,South,16.1,23.0,N/A,,Overcast,190,2014-01-04 10:36:00
5:55 AM,21.7,14.4,73,29.66,10.0,South,17.3,25.3,N/A,,Overcast,190,2014-01-04 10:55:00
6:16 AM,22.1,14.7,73,29.66,10.0,South,13.8,28.8,N/A,,Overcast,190,2014-01-04 11:16:00
6:35 AM,22.1,14.7,73,29.65,10.0,South,17.3,26.5,N/A,,Overcast,180,2014-01-04 11:35:00
6:56 AM,22.1,14.9,74,29.64,10.0,South,17.3,25.3,N/A,,Overcast,190,2014-01-04 11:56:00
7:15 AM,22.1,15.4,76,29.65,10.0,South,17.3,27.6,N/A,,Overcast,180,2014-01-04 12:15:00
7:36 AM,22.6,15.6,74,29.63,10.0,SSW,19.6,27.6,N/A,,Overcast,200,2014-01-04 12:36:00
7:55 AM,22.8,16.0,75,29.64,10.0,SSW,16.1,26.5,N/A,,Overcast,200,2014-01-04 12:55:00
8:16 AM,23.4,16.7,76,29.64,10.0,South,18.4,26.5,N/A,,Overcast,190,2014-01-04 13:16:00
8:36 AM,23.5,17.4,77,29.63,10.0,South,16.1,24.2,N/A,,Mostly Cloudy,190,2014-01-04 13:36:00
8:55 AM,23.9,17.6,77,29.63,10.0,SSW,16.1,21.9,N/A,,Scattered Clouds,200,2014-01-04 13:55:00
9:16 AM,24.1,18.1,78,29.63,10.0,SSW,15.0,25.3,N/A,,Mostly Cloudy,200,2014-01-04 14:16:00
9:36 AM,24.8,18.5,77,29.62,10.0,South,18.4,25.3,N/A,,Overcast,190,2014-01-04 14:36:00
9:55 AM,25.0,18.7,77,29.62,10.0,SSW,15.0,27.6,N/A,,Overcast,200,2014-01-04 14:55:00
10:16 AM,25.2,19.0,78,29.63,10.0,SSW,17.3,26.5,N/A,,Overcast,200,2014-01-04 15:16:00
10:36 AM,25.3,19.2,78,29.65,10.0,SSW,15.0,25.3,N/A,,Overcast,200,2014-01-04 15:36:00
10:56 AM,25.5,19.6,78,29.63,10.0,SSW,15.0,26.5,N/A,,Overcast,200,2014-01-04 15:56:00
11:16 AM,25.7,20.3,80,29.64,7.0,South,15.0,20.7,N/A,,Overcast,190,2014-01-04 16:16:00
11:36 AM,25.9,21.0,82,29.62,5.0,SSW,15.0,21.9,N/A,,Haze,210,2014-01-04 16:36:00
11:56 AM,26.6,21.7,82,29.62,7.0,SSW,12.7,20.7,N/A,,Overcast,200,2014-01-04 16:56:00
12:16 PM,27.1,22.5,83,29.62,10.0,SSW,12.7,18.4,N/A,,Overcast,210,2014-01-04 17:16:00
12:35 PM,27.5,22.8,83,29.62,10.0,SSW,11.5,-,N/A,,Overcast,210,2014-01-04 17:35:00
12:56 PM,28.0,23.4,83,29.62,10.0,SSW,13.8,20.7,N/A,,Overcast,210,2014-01-04 17:56:00
1:16 PM,28.2,23.7,83,29.62,10.0,SW,10.4,-,N/A,,Overcast,220,2014-01-04 18:16:00
1:35 PM,29.1,25.2,85,29.64,7.0,SW,8.1,-,N/A,,Overcast,230,2014-01-04 18:35:00
1:56 PM,29.1,23.9,81,29.64,10.0,WSW,9.2,19.6,N/A,,Overcast,250,2014-01-04 18:56:00
2:16 PM,29.1,23.5,80,29.65,10.0,WSW,4.6,-,N/A,,Overcast,240,2014-01-04 19:16:00
2:35 PM,28.9,23.0,78,29.67,10.0,West,5.8,-,N/A,,Overcast,270,2014-01-04 19:35:00
2:56 PM,28.6,22.1,77,29.68,10.0,SW,9.2,-,N/A,,Overcast,230,2014-01-04 19:56:00
3:16 PM,28.2,21.6,76,29.69,10.0,SW,5.8,19.6,N/A,,Overcast,230,2014-01-04 20:16:00
3:36 PM,28.0,21.2,76,29.71,10.0,WSW,9.2,16.1,N/A,,Overcast,240,2014-01-04 20:36:00
3:56 PM,27.5,21.2,77,29.73,10.0,West,6.9,-,N/A,,Overcast,260,2014-01-04 20:56:00
4:15 PM,27.5,21.2,77,29.74,10.0,WSW,4.6,-,N/A,,Overcast,250,2014-01-04 21:15:00
4:36 PM,27.3,21.2,78,29.75,10.0,West,3.5,-,N/A,,Overcast,270,2014-01-04 21:36:00
4:56 PM,27.1,21.7,80,29.77,7.0,West,5.8,-,N/A,,Overcast,260,2014-01-04 21:56:00
5:15 PM,27.0,22.1,82,29.78,10.0,West,6.9,-,N/A,,Overcast,280,2014-01-04 22:15:00
5:36 PM,27.0,21.0,78,29.79,10.0,West,4.6,-,N/A,,Overcast,280,2014-01-04 22:36:00
5:56 PM,26.6,20.3,77,29.81,10.0,West,8.1,-,N/A,,Overcast,280,2014-01-04 22:56:00
6:15 PM,26.1,19.6,76,29.82,10.0,NW,8.1,-,N/A,,Overcast,310,2014-01-04 23:15:00
6:36 PM,25.2,18.3,75,29.84,10.0,WNW,6.9,-,N/A,,Overcast,300,2014-01-04 23:36:00
6:56 PM,24.4,17.2,74,29.86,10.0,WNW,8.1,-,N/A,,Overcast,290,2014-01-04 23:56:00
7:16 PM,23.9,17.1,75,29.88,10.0,West,6.9,-,N/A,,Overcast,280,2014-01-05 00:16:00
7:36 PM,23.5,15.8,72,29.89,10.0,West,9.2,-,N/A,,Overcast,280,2014-01-05 00:36:00
7:56 PM,23.0,13.6,67,29.89,10.0,NW,9.2,-,N/A,,Overcast,310,2014-01-05 00:56:00
8:16 PM,22.6,13.3,67,29.90,10.0,NW,6.9,-,N/A,,Overcast,310,2014-01-05 01:16:00
8:36 PM,22.1,14.9,74,29.91,10.0,NW,5.8,-,N/A,,Overcast,310,2014-01-05 01:36:00
8:56 PM,21.6,14.9,76,29.93,10.0,WNW,5.8,-,N/A,,Overcast,290,2014-01-05 01:56:00
9:16 PM,21.0,13.8,74,29.93,10.0,West,9.2,-,N/A,,Overcast,280,2014-01-05 02:16:00
9:35 PM,20.5,12.4,71,29.94,10.0,WNW,6.9,-,N/A,,Overcast,290,2014-01-05 02:35:00
9:56 PM,19.9,11.3,69,29.95,10.0,West,5.8,-,N/A,,Mostly Cloudy,270,2014-01-05 02:56:00
10:16 PM,21.0,11.8,68,29.96,10.0,West,4.6,-,N/A,,Overcast,280,2014-01-05 03:16:00
10:35 PM,20.7,12.2,70,29.96,10.0,West,5.8,-,N/A,,Overcast,270,2014-01-05 03:35:00
10:56 PM,20.3,12.2,71,29.97,10.0,West,5.8,-,N/A,,Overcast,260,2014-01-05 03:56:00
11:16 PM,20.1,12.7,73,29.97,10.0,West,4.6,-,N/A,,Overcast,270,2014-01-05 04:16:00
11:35 PM,20.1,12.6,73,29.97,10.0,WSW,3.5,-,N/A,,Overcast,250,2014-01-05 04:35:00
11:56 PM,20.1,12.4,72,29.98,10.0,West,5.8,-,N/A,Snow,Light Snow,280,2014-01-05 04:56:00